Location: Newark
(45.4422°N, 16.2769°E)
Time: 05:31:17
(UTC+00:00)

Tiros 1 despin weight - Pass Details

Date: 19 December 2019
Orbit: 594 x 642 km, 48.2° (Epoch: 26 January)

Event Time Altitude Azimuth Distance (km) Brightness Sun altitude
Rises 02:14:22 0° 259° (WSW) 2,909 - -43.7°
Reaches altitude 10° 02:16:42 10° 261° (W) 1,996 - -43.3°
Maximum altitude 02:21:17 73° 346° (NNW) 648 - -42.5°
Drops below altitude 10° 02:25:49 10° 72° (ENE) 1,967 - -41.7°
Exits shadow 02:26:18 - 73° (ENE) 2,158 ? -41.6°
Sets 02:28:06 0° 74° (ENE) 2,865 ? -41.3°
